Weather History for Omaha Millard, NE

Change the Weather History Date:

Sunday, June 30, 2013

  Actual Average (KOMA) Record (KOMA)
Temperature  
Mean Temperature 68 °F 76 °F  
Max Temperature 78 °F 87 °F 101 °F (1961)
Min Temperature 59 °F 65 °F 53 °F (1951)
Degree Days  
Heating Degree Days 0 0  
Month to date heating degree days 15  
Since 1 June heating degree days 17  
Since 1 July heating degree days 6167  
Cooling Degree Days 4 11  
Month to date cooling degree days 230  
Year to date cooling degree days 312  
Since 1 June cooling degree days 230  
Growing Degree Days 18 (Base 50)    
Moisture  
Dew Point 54 °F    
Average Humidity 62    
Maximum Humidity 91    
Minimum Humidity 36    
Precipitation  
Precipitation 0.00 in 0.12 in 2.06 in (1878)
Month to date precipitation 4.18  
Year to date precipitation 15.46  
Snow  
Snow 0.00 in 0.00 in - ()
Month to date snowfall 0.0  
Since 1 July snowfall 26.4  
Snow Depth -    
Sea Level Pressure  
Sea Level Pressure 30.05 in    
Wind  
Wind Speed 2 mph (North)    
Max Wind Speed 12 mph    
Max Gust Speed 23 mph    
Visibility 10 miles    
Events      
T = Trace of Precipitation, MM = Missing Value Source: NWS Daily Summary

Daily Weather History Graph

Daily Weather History Graph

Search for Another Location

Airport:

Trip Planner

Search our weather history database for the weather conditions in past years. The results will help you decide how hot, cold, wet, or windy it might be!

Date:

Astronomy

Jun. 30, 2013 Rise Set
Actual Time 5:55 AM CDT 9:01 PM CDT
Civil Twilight 5:21 AM CDT 9:34 PM CDT
Nautical Twilight 4:38 AM CDT 10:17 PM CDT
Astronomical Twilight 3:47 AM CDT 11:08 PM CDT
Moon 12:57 AM CDT (6/30) 2:14 PM CDT (6/30)
Length of Visible Light 16h 13m
Length of Day
15h 06m
Last Quarter, 45% of the Moon is Illuminated
Jun 30
Last Quarter
Jul 8
New
Jul 15
First Quarter
Jul 22
Full
Jul 29
Last Quarter

Hourly Weather History & Observations

Time (CDT) Temp. Dew Point Humidity Pressure Visibility Wind Dir Wind Speed Gust Speed Precip Events Conditions
12:15 AM 65.5 °F 57.2 °F 75% 29.96 in 10.0 mi Calm Calm - N/A   Scattered Clouds
12:35 AM 66.9 °F 57.2 °F 71% 29.96 in 10.0 mi WNW 3.5 mph - N/A   Scattered Clouds
12:55 AM 64.9 °F 57.2 °F 76% 29.96 in 10.0 mi Calm Calm - N/A   Clear
1:15 AM 64.6 °F 58.1 °F 79% 29.98 in 10.0 mi Calm Calm - N/A   Clear
1:35 AM 64.0 °F 58.1 °F 81% 29.98 in 10.0 mi Calm Calm - N/A   Clear
1:55 AM 62.8 °F 58.1 °F 85% 29.98 in 10.0 mi Calm Calm - N/A   Clear
2:15 AM 63.9 °F 57.7 °F 80% 29.99 in 10.0 mi WNW 4.6 mph - N/A   Clear
2:35 AM 63.5 °F 57.7 °F 81% 29.99 in 10.0 mi Calm Calm - N/A   Clear
2:55 AM 62.4 °F 57.0 °F 82% 30.00 in 10.0 mi Calm Calm - N/A   Clear
3:15 AM 62.6 °F 57.7 °F 84% 30.00 in 10.0 mi Calm Calm - N/A   Clear
3:35 AM 61.7 °F 57.6 °F 86% 30.00 in 10.0 mi WNW 3.5 mph - N/A   Clear
3:55 AM 61.9 °F 57.6 °F 86% 30.00 in 10.0 mi Calm Calm - N/A   Clear
4:15 AM 60.8 °F 57.2 °F 88% 30.00 in 10.0 mi WNW 4.6 mph - N/A   Clear
4:35 AM 60.3 °F 56.7 °F 88% 30.01 in 10.0 mi Calm Calm - N/A   Scattered Clouds
4:55 AM 61.5 °F 57.0 °F 85% 30.01 in 10.0 mi Calm Calm - N/A   Scattered Clouds
5:15 AM 60.3 °F 56.5 °F 87% 30.01 in 10.0 mi West 3.5 mph - N/A   Clear
5:35 AM 60.3 °F 56.7 °F 88% 30.01 in 10.0 mi Calm Calm - N/A   Clear
5:55 AM 59.7 °F 56.7 °F 90% 30.02 in 10.0 mi WNW 3.5 mph - N/A   Clear
6:15 AM 59.4 °F 56.7 °F 91% 30.02 in 10.0 mi Calm Calm - N/A   Clear
6:35 AM 59.2 °F 56.5 °F 91% 30.03 in 10.0 mi Calm Calm - N/A   Clear
6:55 AM 59.9 °F 57.4 °F 91% 30.03 in 10.0 mi Calm Calm - N/A   Clear
7:15 AM 61.0 °F 57.9 °F 90% 30.04 in 10.0 mi Calm Calm - N/A   Clear
7:35 AM 62.6 °F 57.2 °F 82% 30.05 in 10.0 mi NW 3.5 mph - N/A   Clear
7:55 AM 62.8 °F 57.7 °F 84% 30.05 in 10.0 mi Calm Calm - N/A   Clear
8:15 AM 64.4 °F 57.2 °F 77% 30.06 in 10.0 mi Calm Calm - N/A   Clear
8:35 AM 65.3 °F 57.0 °F 75% 30.07 in 10.0 mi NNW 3.5 mph - N/A   Clear
8:55 AM 66.4 °F 57.7 °F 74% 30.07 in 10.0 mi NNW 4.6 mph - N/A   Scattered Clouds
9:15 AM 67.1 °F 57.7 °F 72% 30.07 in 10.0 mi North 3.5 mph - N/A   Scattered Clouds
9:35 AM 66.9 °F 57.2 °F 71% 30.07 in 10.0 mi Calm Calm - N/A   Clear
9:55 AM 68.4 °F 57.0 °F 67% 30.06 in 10.0 mi Calm Calm - N/A   Clear
10:15 AM 69.8 °F 57.2 °F 64% 30.07 in 10.0 mi North 4.6 mph - N/A   Clear
10:35 AM 70.2 °F 56.3 °F 61% 30.07 in 10.0 mi NNE 4.6 mph - N/A   Clear
10:55 AM 70.7 °F 55.9 °F 59% 30.08 in 10.0 mi Calm Calm - N/A   Scattered Clouds
11:15 AM 71.6 °F 55.2 °F 56% 30.08 in 10.0 mi North 6.9 mph - N/A   Scattered Clouds
11:35 AM 71.8 °F 56.1 °F 58% 30.08 in 10.0 mi North 6.9 mph - N/A   Clear
11:55 AM 72.0 °F 53.4 °F 52% 30.08 in 10.0 mi North 8.1 mph - N/A   Clear
12:15 PM 72.9 °F 54.0 °F 51% 30.08 in 10.0 mi NNE 5.8 mph - N/A   Clear
12:35 PM 73.0 °F 54.5 °F 52% 30.08 in 10.0 mi North 5.8 mph - N/A   Clear
12:55 PM 73.6 °F 52.5 °F 48% 30.08 in 10.0 mi North 8.1 mph - N/A   Clear
1:15 PM 74.3 °F 51.4 °F 45% 30.07 in 10.0 mi North 8.1 mph - N/A   Clear
1:35 PM 74.7 °F 52.2 °F 45% 30.07 in 10.0 mi North 8.1 mph - N/A   Clear
1:55 PM 74.8 °F 49.5 °F 41% 30.07 in 10.0 mi North 6.9 mph - N/A   Clear
2:15 PM 75.6 °F 49.6 °F 40% 30.07 in 10.0 mi North 3.5 mph - N/A   Clear
2:35 PM 76.3 °F 52.0 °F 43% 30.07 in 10.0 mi North 6.9 mph - N/A   Clear
2:55 PM 76.5 °F 50.9 °F 41% 30.07 in 10.0 mi NE 6.9 mph - N/A   Clear
3:15 PM 76.8 °F 51.8 °F 42% 30.06 in 10.0 mi Calm Calm - N/A   Clear
3:35 PM 77.4 °F 52.2 °F 41% 30.06 in 10.0 mi North 11.5 mph 17.3 mph N/A   Clear
3:55 PM 77.7 °F 51.6 °F 40% 30.06 in 10.0 mi NE 3.5 mph - N/A   Clear
4:15 PM 77.9 °F 52.0 °F 40% 30.06 in 10.0 mi North 11.5 mph 23.0 mph N/A   Clear
4:35 PM 78.1 °F 51.3 °F 39% 30.06 in 10.0 mi ENE 6.9 mph - N/A   Scattered Clouds
4:55 PM 77.9 °F 50.4 °F 38% 30.06 in 10.0 mi NNW 6.9 mph - N/A   Clear
5:15 PM 77.9 °F 51.1 °F 39% 30.06 in 10.0 mi NNE 3.5 mph - N/A   Scattered Clouds
5:35 PM 77.9 °F 51.8 °F 40% 30.06 in 10.0 mi North 4.6 mph - N/A   Scattered Clouds
5:55 PM 77.7 °F 51.3 °F 40% 30.06 in 10.0 mi North 5.8 mph - N/A   Mostly Cloudy
6:15 PM 77.9 °F 50.4 °F 38% 30.06 in 10.0 mi NNE 6.9 mph - N/A   Mostly Cloudy
6:35 PM 77.9 °F 50.4 °F 38% 30.06 in 10.0 mi NE 5.8 mph - N/A   Mostly Cloudy
6:55 PM 77.4 °F 50.2 °F 38% 30.07 in 10.0 mi North 3.5 mph - N/A   Scattered Clouds
7:15 PM 77.4 °F 49.8 °F 38% 30.07 in 10.0 mi NE 5.8 mph - N/A   Clear
7:35 PM 77.0 °F 48.4 °F 36% 30.07 in 10.0 mi North 3.5 mph - N/A   Clear
7:55 PM 76.6 °F 47.8 °F 36% 30.07 in 10.0 mi NE 4.6 mph - N/A   Clear
8:15 PM 76.1 °F 48.2 °F 37% 30.07 in 10.0 mi NNE 3.5 mph - N/A   Clear
8:35 PM 75.2 °F 48.7 °F 39% 30.07 in 10.0 mi Calm Calm - N/A   Clear
8:55 PM 74.3 °F 48.7 °F 40% 30.08 in 10.0 mi NNE 3.5 mph - N/A   Clear
9:15 PM 72.9 °F 49.1 °F 43% 30.08 in 10.0 mi Calm Calm - N/A   Clear
9:35 PM 72.5 °F 49.3 °F 44% 30.09 in 10.0 mi Calm Calm - N/A   Clear
9:55 PM 68.7 °F 52.0 °F 55% 30.10 in 10.0 mi Calm Calm - N/A   Clear
10:15 PM 66.9 °F 53.6 °F 62% 30.11 in 10.0 mi Calm Calm - N/A   Clear
10:35 PM 65.5 °F 54.0 °F 66% 30.11 in 10.0 mi Calm Calm - N/A   Clear
10:55 PM 66.0 °F 53.6 °F 64% 30.11 in 10.0 mi Calm Calm - N/A   Clear
11:15 PM 66.6 °F 52.9 °F 61% 30.11 in 10.0 mi WNW 3.5 mph - N/A   Clear
11:35 PM 66.6 °F 52.9 °F 61% 30.11 in 10.0 mi NW 4.6 mph - N/A   Clear
11:55 PM 65.7 °F 53.2 °F 64% 30.11 in 10.0 mi Calm Calm - N/A   Clear